EW9873 Weather Reports


Display with metric or nautical units.
time (UTC)temp
F
wind
direction
speed
MPH
gust
MPH
rain 1hr
in
rain 24hr
in
rain mn
in
humidity
%
barometer
mb
20210926044554 65 238 2.0 6.0 0.00 0.00 0.00 88 1015.4
20210926043133 65 273 3.0 6.0 0.00 0.00 0.00 87 1015.6
20210926041534 65 218 0.0 4.0 0.00 0.00 0.00 87 1015.5
20210926040026 65 140 0.0 4.0 0.00 0.00 0.00 87 1015.3
20210926034508 65 213 0.0 2.0 0.00 0.00 0.00 87 1015.2
20210926033008 65 216 0.0 3.0 0.00 0.00 0.00 87 1015.1
20210926031609 65 243 0.0 3.0 0.00 0.00 0.00 87 1015.0
20210926030126 65 215 0.0 2.0 0.00 0.00 0.00 87 1014.8
20210926024558 66 186 0.0 4.0 0.00 0.00 0.00 87 1014.8
20210926023114 66 132 1.0 5.0 0.00 0.00 0.00 86 1014.6
20210926021517 66 103 0.0 2.0 0.00 0.00 0.00 86 1014.5
20210926020010 66 165 1.0 3.0 0.00 0.00 0.00 86 1014.4
20210926014638 66 186 1.0 4.0 0.00 0.00 0.00 85 1014.3
20210926013110 66 200 0.0 5.0 0.00 0.00 0.00 85 1014.4
20210926011616 67 202 0.0 3.0 0.00 0.00 0.00 84 1014.4
20210926010049 67 138 1.0 6.0 0.00 0.00 0.00 84 1014.3
20210926004521 67 174 2.0 7.0 0.00 0.00 0.00 83 1014.3
20210926003035 68 194 2.0 6.0 0.00 0.03 0.00 82 1014.2
20210926001616 69 179 3.0 7.0 0.00 0.03 0.00 80 1014.1
20210926000155 70 186 3.0 10.0 0.00 0.03 0.00 79 1014.0
20210925234548 70 171 3.0 9.0 0.00 0.03 0.00 78 1014.2
20210925233125 72 191 1.0 6.0 0.00 0.48 0.00 77 1014.2
20210925231613 73 223 3.0 10.0 0.00 0.48 0.00 75 1014.0
20210925230047 73 224 2.0 9.0 0.00 0.48 0.00 75 1013.9
20210925224551 74 143 3.0 8.0 0.00 0.48 0.00 73 1014.0
20210925223110 75 161 4.0 8.0 0.00 0.56 0.00 73 1014.2
20210925221552 75 98 4.0 9.0 0.00 0.56 0.00 72 1014.2
20210925220115 75 177 3.0 10.0 0.00 0.56 0.00 72 1014.0
20210925214525 75 179 2.0 9.0 0.00 0.56 0.00 74 1014.0
20210925213023 74 220 3.0 10.0 0.00 0.56 0.00 74 1014.1
20210925211645 73 186 2.0 9.0 0.00 0.56 0.00 76 1014.3
20210925210159 73 198 4.0 10.0 0.00 0.56 0.00 76 1014.5
20210925204618 72 170 2.0 9.0 0.00 0.56 0.00 78 1014.7
20210925203048 73 122 3.0 11.0 0.00 0.56 0.00 76 1014.9
20210925201545 74 165 3.0 8.0 0.00 0.56 0.00 77 1015.0
20210925200056 73 172 3.0 10.0 0.00 0.56 0.00 76 1015.2
20210925194510 74 239 1.0 10.0 0.00 0.56 0.00 78 1015.3
20210925193007 74 231 3.0 7.0 0.00 0.56 0.00 77 1015.4
20210925191557 74 159 2.0 8.0 0.00 0.56 0.00 77 1015.4
20210925190120 73 116 2.0 6.0 0.00 0.56 0.00 79 1015.5
20210925184524 72 256 5.0 7.0 0.00 0.56 0.00 78 1015.6
20210925183103 72 199 3.0 7.0 0.00 0.56 0.00 80 1015.8
20210925180151 71 123 1.0 7.0 0.00 0.56 0.00 83 1015.8
20210925173111 71 173 2.0 6.0 0.00 0.56 0.00 82 1016.0
20210925171549 71 208 1.0 5.0 0.00 0.56 0.00 81 1015.8
20210925170022 70 128 2.0 4.0 0.00 0.56 0.00 84 1015.8
20210925164505 69 186 0.0 2.0 0.00 0.56 0.00 86 1015.8
20210925163134 68 190 0.0 2.0 0.00 0.56 0.00 87 1015.7
20210925161619 67 190 0.0 2.0 0.00 0.56 0.00 90 1015.5
20210925160111 66 322 0.0 0.0 0.00 0.56 0.00 94 1015.5
20210925154658 65 321 0.0 2.0 0.00 0.56 0.00 95 1015.4
20210925153150 64 289 0.0 0.0 0.00 0.56 0.00 95 1015.3
20210925151547 64 289 0.0 0.0 0.00 0.56 0.00 95 1015.2
20210925150108 63 220 0.0 0.0 0.00 0.56 0.00 96 1015.2
20210925144541 62 220 0.0 0.0 0.00 0.56 0.00 96 1015.1
20210925143039 62 220 0.0 0.0 0.00 0.56 0.00 95 1015.1
20210925141504 61 220 0.0 0.0 0.00 0.56 0.00 95 1015.0
20210925140002 61 220 0.0 0.0 0.00 0.56 0.00 95 1014.9
20210925134555 61 221 0.0 0.0 0.00 0.56 0.00 95 1014.7
20210925133207 62 221 0.0 0.0 0.00 0.56 0.00 95 1014.8
20210925131532 62 221 0.0 0.0 0.00 0.56 0.00 95 1014.7
20210925130031 62 221 0.0 0.0 0.00 0.56 0.00 95 1014.5
20210925124515 62 221 0.0 0.0 0.00 0.56 0.00 95 1014.3
20210925123012 62 221 0.0 0.0 0.00 0.56 0.00 95 1014.1
20210925121629 62 221 0.0 0.0 0.00 0.56 0.00 95 1014.1
20210925120056 62 221 0.0 0.0 0.00 0.56 0.00 95 1014.0
20210925114602 62 221 0.0 0.0 0.00 0.56 0.00 95 1013.9
20210925113102 62 221 0.0 0.0 0.00 0.56 0.00 95 1014.0
20210925111538 62 221 0.0 0.0 0.00 0.56 0.00 95 1013.9
20210925110025 62 221 0.0 0.0 0.00 0.56 0.00 95 1013.9
20210925104521 62 221 0.0 0.0 0.00 0.56 0.00 95 1013.9
20210925103018 63 222 0.0 0.0 0.00 0.56 0.00 95 1014.0
20210925101536 63 178 0.0 0.0 0.00 0.56 0.00 95 1014.1
20210925100017 63 178 0.0 0.0 0.00 0.56 0.00 95 1014.2
20210925094520 63 178 0.0 0.0 0.00 0.56 0.00 95 1014.2
20210925093027 63 178 0.0 0.0 0.00 0.56 0.00 95 1014.4
20210925091516 63 178 0.0 2.0 0.00 0.56 0.00 95 1014.5
20210925090218 63 177 0.0 2.0 0.00 0.56 0.00 95 1014.5
20210925084608 62 146 0.0 0.0 0.00 0.56 0.00 95 1014.4
20210925083041 62 146 0.0 0.0 0.00 0.56 0.00 95 1014.4
20210925081554 62 146 0.0 0.0 0.00 0.56 0.00 95 1014.2
20210925080015 62 146 0.0 0.0 0.00 0.56 0.00 95 1014.2
20210925074547 62 146 0.0 0.0 0.00 0.56 0.00 95 1014.5
20210925073254 62 146 0.0 0.0 0.00 0.56 0.56 95 1014.3
20210925071706 62 146 0.0 1.0 0.00 0.56 0.56 95 1014.5
20210925070054 63 146 0.0 0.0 0.00 0.56 0.56 95 1014.6
20210925064551 63 146 0.0 0.0 0.00 0.56 0.56 95 1014.6
20210925063045 63 146 0.0 2.0 0.00 0.56 0.56 95 1014.6
20210925061514 63 110 0.0 1.0 0.00 0.56 0.56 94 1014.5
20210925060139 63 108 1.0 3.0 0.00 0.56 0.56 94 1014.5
20210925054616 63 350 0.0 0.0 0.00 0.56 0.56 95 1014.6
20210925053114 63 350 0.0 0.0 0.00 0.56 0.56 94 1014.3
20210925051553 63 350 0.0 1.0 0.00 0.56 0.56 94 1014.3
20210925050126 63 350 0.0 1.0 0.00 0.56 0.56 94 1014.2